National Weather Service Raw Text Product

Displaying AFOS PIL: RWRIA Received: 2018-01-12 07:00 UTC


188 
ASUS43 KDMX 120706
RWRIA 

WEATHER ROUNDUP FOR IOWA
NATIONAL WEATHER SERVICE DES MOINES IA
100 AM CST FRI JAN 12 2018

NOTE: "FAIR" INDICATES FEW OR NO CLOUDS BELOW 12,000 FEET WITH NO
SIGNIFICANT WEATHER AND/OR OBSTRUCTIONS TO VISIBILITY.

* - THESE STATIONS ARE NOT NWS STATIONS...THUS NOT UNDER NWS
QUALITY CONTROL.  THEY ALSO DO NOT REPORT WEATHER SUCH 
AS PRECIPITATION OR FOG.  

IAZ001>003-012>014-020>022-031>034-043>046-120800-
   NORTHWEST IOWA
  
CITY           SKY/WX    TMP DP  RH WIND       PRES   REMARKS
CARROLL *      CLOUDY     1  -6  71 NW16G22   30.27S WCI -18          
CHEROKEE *     CLOUDY    -1  -8  71 N13G20    30.32R WCI -19          
DENISON *      CLOUDY     1  -6  71 N12G18    30.31S WCI -15          
LE MARS *      CLOUDY     0  -8  71 N13       30.35S WCI -18          
ORANGE CITY *  CLOUDY     0  -8  71 N13       30.31S WCI -18          
SHELDON *      CLOUDY    -4 -11  71 N20       30.31S WCI -27          
SIOUX CITY     CLOUDY     1  -8  66 N18       30.37R WCI -20          
SPENCER        CLOUDY    -3 -13  62 N13G22    30.30R WCI -22          
STORM LAKE *   CLOUDY     0  -9  65 N20       30.27R WCI -22          
$$
 
IAZ055>058-069>071-079>083-090>094-120800-
   SOUTHWEST IOWA
  
CITY           SKY/WX    TMP DP  RH WIND       PRES   REMARKS
ATLANTIC *     CLOUDY     5  -4  66 N13       30.27F WCI -12          
AUDUBON *      CLOUDY     3  -4  72 N14G22    30.25F WCI -15          
CLARINDA *     CLOUDY     7  -2  66 N21       30.29  WCI -13          
COUNCIL BLFS * CLOUDY     3  -2  78 NW14G23   30.29F WCI -15          
CRESTON *      CLOUDY     5  -2  72 NW16G26   30.23R WCI -14          
HARLAN  *      CLOUDY     3  -4  72 NW20      30.31F WCI -18          
LAMONI         CLOUDY     6  -3  66 N17G25    30.19S WCI -13          
RED OAK *      CLOUDY     5  -2  72 N14G21    30.29S WCI -12          
SHENANDOAH *   CLOUDY     7  -2  66 N15G23    30.31S WCI -11          
$$
 
IAZ047>049-059>061-072>074-084-120800-
   CENTRAL IOWA
  
CITY           SKY/WX    TMP DP  RH WIND       PRES   REMARKS
AMES           CLOUDY     1  -5  75 N18G31    30.24R WCI -20          
ANKENY *       CLOUDY     3  -4  72 N14G25    30.25R WCI -15          
BOONE *        CLOUDY     1  -6  71 N23G32    30.22S WCI -21          
CHARITON *     CLOUDY     5  -2  72 NW18G25   30.19S WCI -15          
DES MOINES     CLOUDY     4  -5  66 N16G22    30.23R WCI -15          
GRINNELL*      CLOUDY     2  -2  81 NW20G26   30.18R WCI -19          
KNOXVILLE *    CLOUDY     5  -4  66 NW16      30.19R WCI -14          
MARSHALLTOWN   CLOUDY     1  -5  75 NW22G31   30.19R WCI -21          
NEWTON *       CLOUDY     1  -4  78 NW20G25   30.20R WCI -20          
PELLA *        CLOUDY     4  -3  74 NW21G28   30.21R WCI -17          
PERRY *          N/A      2  -6  69 NW21      30.26S WCI -19          
$$
 
IAZ004>006-015-016-023>025-035-036-120800-
   NORTH CENTRAL IOWA
  
CITY           SKY/WX    TMP DP  RH WIND       PRES   REMARKS
ALGONA *       CLOUDY    -4 N/A N/A N15G28    30.24S WCI -25          
CLARION *      CLOUDY    -2  -8  78 NW17G30   30.24R WCI -24          
ESTHERVILLE    CLOUDY    -6 -12  75 N23       30.27R WCI -31          
FORT DODGE *   CLOUDY    -2  -9  72 NW13G21   30.25S WCI -20          
MASON CITY     CLOUDY    -4 -11  72 NW23G31   30.21S WCI -29          
FOREST CITY *    N/A     -2  -9  71 N21G26    30.22S WCI -25          
WEBSTER CITY * CLOUDY     0 -11  60 NW25G35   30.22S WCI -25          
IOWA FALLS *     N/A      0  -6  76 NW22      30.21R WCI -23          
$$

IAZ007>011-017>019-026>030-037>042-050>054-066-120800-
   NORTHEAST IOWA
  
CITY           SKY/WX    TMP DP  RH WIND       PRES   REMARKS
CEDAR RAPIDS   MOCLDY     9   2  73 NW18G28   30.11R WCI -10          
CHARLES CITY * CLOUDY     1  -4  78 NW21G29   30.17R WCI -20          
CLINTON *      CLOUDY    13   8  81 NW15      30.07R WCI  -3          
DECORAH *      CLOUDY     5   0  78 N23G29    30.10R WCI -17          
DUBUQUE          N/A      9   2  73 N20       30.03R WCI -10          
MONTICELLO *   CLOUDY    10   1  67 NW17G25   30.08R WCI  -7          
OELWEIN *      MOCLDY     7   1  78 N22G30    30.13R WCI -14          
WATERLOO         N/A      2  -5  72 NW21      30.16R WCI -20          
$$
 
IAZ064-065-067-068-078-120800-
   EAST CENTRAL IOWA
  
CITY           SKY/WX    TMP DP  RH WIND       PRES   REMARKS
DAVENPORT      CLOUDY    13   5  70 NW23      30.08R WCI  -6          
IOWA CITY      CLOUDY    10   2  69 NW17G26   30.15R WCI  -8          
MT. PLEASANT * CLOUDY    10   3  72 NW15G22   30.14R WCI  -6          
MUSCATINE *    CLOUDY    12   7  79 NW20G25   30.13R WCI  -6          
QUAD CITIES    CLOUDY    13   6  74 NW18G24   30.08R WCI  -4          
$$
 
IAZ062-063-075>077-085>089-095>099-120800-
   SOUTHEAST IOWA
  
CITY           SKY/WX    TMP DP  RH WIND       PRES   REMARKS
BURLINGTON     CLOUDY    10   4  76 NW12G23   30.11R WCI  -5          
FAIRFIELD *    CLOUDY     7  -2  66 NW24G31   30.14R WCI -15          
FORT MADISON * CLOUDY    10   7  85 NW16G23   30.12R WCI  -7          
KEOKUK *       CLOUDY    10   5  79 NW14G23   30.13R WCI  -5          
OSKALOOSA *      N/A      5   0  79 NW23      30.18R WCI -17          
OTTUMWA        CLOUDY     6  -2  69 NW25G33   30.17R WCI -16          
WASHINGTON *   CLOUDY     9   3  78 NW21G30   30.15R WCI -11          
$$

ABBREVIATIONS USED IN REMARKS
   TC - TEMPERATURES IN CELSIUS
  WCI - WIND CHILL INDEX
   HX - HEAT INDEX
  VSB - VISIBILITY  
$$

  

000 
ASUS43 KDMX 120701
RWRIA 

WEATHER ROUNDUP FOR IOWA
NATIONAL WEATHER SERVICE DES MOINES IA
100 AM CST FRI JAN 12 2018

NOTE: "FAIR" INDICATES FEW OR NO CLOUDS BELOW 12,000 FEET WITH NO
SIGNIFICANT WEATHER AND/OR OBSTRUCTIONS TO VISIBILITY.

* - THESE STATIONS ARE NOT NWS STATIONS...THUS NOT UNDER NWS
QUALITY CONTROL.  THEY ALSO DO NOT REPORT WEATHER SUCH 
AS PRECIPITATION OR FOG.  

IAZ001>003-012>014-020>022-031>034-043>046-120800-
   NORTHWEST IOWA
  
CITY           SKY/WX    TMP DP  RH WIND       PRES   REMARKS
CARROLL *      CLOUDY     1  -6  71 NW16G22   30.27S WCI -18          
CHEROKEE *     CLOUDY    -1  -8  71 N13G20    30.32R WCI -19          
DENISON *      CLOUDY     1  -6  71 N12G18    30.31S WCI -15          
LE MARS *      CLOUDY     0  -8  71 N13       30.35S WCI -18          
ORANGE CITY *  CLOUDY     0  -8  71 N13       30.31S WCI -18          
SHELDON *      CLOUDY    -4 -11  71 N20       30.31S WCI -27          
SIOUX CITY     CLOUDY     1  -8  66 N18       30.37R WCI -20          
SPENCER        CLOUDY    -3 -13  62 N13G22    30.30R WCI -22          
STORM LAKE *   CLOUDY     0  -9  65 N20       30.27R WCI -22          
$$
 
IAZ055>058-069>071-079>083-090>094-120800-
   SOUTHWEST IOWA
  
CITY           SKY/WX    TMP DP  RH WIND       PRES   REMARKS
ATLANTIC *     CLOUDY     5  -4  66 N13       30.27F WCI -12          
AUDUBON *      CLOUDY     3  -4  72 N14G22    30.25F WCI -15          
CLARINDA *     CLOUDY     7  -2  66 N21       30.29  WCI -13          
COUNCIL BLFS * CLOUDY     3  -2  78 NW14G23   30.29F WCI -15          
CRESTON *      CLOUDY     5  -2  72 NW16G26   30.23R WCI -14          
HARLAN  *      CLOUDY     3  -4  72 NW20      30.31F WCI -18          
LAMONI         CLOUDY     6  -3  66 N17G25    30.19S WCI -13          
RED OAK *      CLOUDY     5  -2  72 N14G21    30.29S WCI -12          
SHENANDOAH *   CLOUDY     7  -2  66 N15G23    30.31S WCI -11          
$$
 
IAZ047>049-059>061-072>074-084-120800-
   CENTRAL IOWA
  
CITY           SKY/WX    TMP DP  RH WIND       PRES   REMARKS
AMES           CLOUDY     1  -5  75 N18G31    30.24R WCI -20          
ANKENY *       CLOUDY     3  -4  72 N14G25    30.25R WCI -15          
BOONE *        CLOUDY     1  -6  71 N23G32    30.22S WCI -21          
CHARITON *     CLOUDY     5  -2  72 NW18G25   30.19S WCI -15          
DES MOINES     CLOUDY     4  -5  66 N16G22    30.23R WCI -15          
GRINNELL*      CLOUDY     2  -2  81 NW20G26   30.18R WCI -19          
KNOXVILLE *    CLOUDY     5  -4  66 NW16      30.19R WCI -14          
MARSHALLTOWN   CLOUDY     1  -5  75 NW22G31   30.19R WCI -21          
NEWTON *       CLOUDY     1  -4  78 NW20G25   30.20R WCI -20          
PELLA *        CLOUDY     4  -3  74 NW21G28   30.21R WCI -17          
$$
 
IAZ004>006-015-016-023>025-035-036-120800-
   NORTH CENTRAL IOWA
  
CITY           SKY/WX    TMP DP  RH WIND       PRES   REMARKS
ALGONA *       CLOUDY    -4 N/A N/A N15G28    30.24S WCI -25          
CLARION *      CLOUDY    -2  -8  78 NW17G30   30.24R WCI -24          
ESTHERVILLE    CLOUDY    -6 -12  75 N23       30.27R WCI -31          
FORT DODGE *   CLOUDY    -2  -9  72 NW13G21   30.25S WCI -20          
MASON CITY     CLOUDY    -4 -11  72 NW23G31   30.21S WCI -29          
FOREST CITY *    N/A     -2  -9  71 N21G26    30.22S WCI -25          
WEBSTER CITY * CLOUDY     0 -11  60 NW25G35   30.22S WCI -25          
IOWA FALLS *     N/A      0  -6  76 NW22G28   30.21R WCI -23          
$$

IAZ007>011-017>019-026>030-037>042-050>054-066-120800-
   NORTHEAST IOWA
  
CITY           SKY/WX    TMP DP  RH WIND       PRES   REMARKS
CEDAR RAPIDS   MOCLDY     9   2  73 NW18G28   30.11R WCI -10          
CHARLES CITY * CLOUDY     1  -4  78 NW21G29   30.17R WCI -20          
CLINTON *      CLOUDY    13   8  81 NW15      30.07R WCI  -3          
DECORAH *      CLOUDY     5   0  78 N23G29    30.10R WCI -17          
DUBUQUE          N/A      9   2  73 N20       30.03R WCI -10          
MONTICELLO *   CLOUDY    10   1  67 NW17G25   30.08R WCI  -7          
OELWEIN *      MOCLDY     7   1  78 N22G30    30.13R WCI -14          
WATERLOO         N/A      2  -5  72 NW21      30.16R WCI -20          
$$
 
IAZ064-065-067-068-078-120800-
   EAST CENTRAL IOWA
  
CITY           SKY/WX    TMP DP  RH WIND       PRES   REMARKS
DAVENPORT      CLOUDY    13   5  70 NW23      30.08R WCI  -6          
IOWA CITY      CLOUDY    10   2  69 NW17G26   30.15R WCI  -8          
MT. PLEASANT * CLOUDY    10   3  72 NW15G22   30.14R WCI  -6          
MUSCATINE *    CLOUDY    12   7  79 NW20G25   30.13R WCI  -6          
QUAD CITIES    CLOUDY    13   6  74 NW18G24   30.08R WCI  -4          
$$
 
IAZ062-063-075>077-085>089-095>099-120800-
   SOUTHEAST IOWA
  
CITY           SKY/WX    TMP DP  RH WIND       PRES   REMARKS
BURLINGTON     CLOUDY    10   4  76 NW12G23   30.11R WCI  -5          
FAIRFIELD *    CLOUDY     7  -2  66 NW24G31   30.14R WCI -15          
FORT MADISON * CLOUDY    10   7  85 NW16G23   30.12R WCI  -7          
KEOKUK *       CLOUDY    10   5  79 NW14G23   30.13R WCI  -5          
OSKALOOSA *      N/A      5   0  79 NW23      30.18R WCI -17          
OTTUMWA        CLOUDY     6  -2  69 NW25G33   30.17R WCI -16          
WASHINGTON *   CLOUDY     9   3  78 NW21G30   30.15R WCI -11          
$$

ABBREVIATIONS USED IN REMARKS
   TC - TEMPERATURES IN CELSIUS
  WCI - WIND CHILL INDEX
   HX - HEAT INDEX
  VSB - VISIBILITY  
$$